Home > Weather > Menominee > Past weeks

Flag for U.S.A. Weather for the Past 2 Weeks in Menominee, Michigan, U.S.A.

Now
14 °F

Scattered clouds.


Feels Like: 1 °F
Forecast: 2 / 13 °F
Wind: 10 mph from Northwest

Location: Menominee Weather Reporting Station

Current Time: Feb 12, 2016 at 10:16:41 AM

Latest Report: Feb 12, 2016 at 9:35 AM


Visibility: 10 mi

Pressure: 30.05 "Hg

Humidity: 52%

Dew point: 0 °F

Location of MenomineeLocation

Historic Weather in Menominee — Graph

°F

Menominee Temperature Yesterday

Maximum temperature yesterday: 19 °F (at 2:55 PM)
Minimum temperature yesterday: 1 °F (at 12:15 AM)
Average temperature yesterday: 10 °F

High & Low Weather Summary for the Past Weeks

 TemperatureHumidityPressure
High41 °F (Jan 30, 2:55 PM)100% (Jan 31, 7:55 AM)30.32 "Hg (Jan 31, 7:55 AM)
Low1 °F (Feb 11, 12:15 AM)40% (Feb 10, 2:15 PM)29.46 "Hg (Jan 30, 3:35 AM)
Average24 °F73%29.88 "Hg
* Reported Jan 28 9:15 AM — Feb 12 9:15 AM, Menominee, Weather by CustomWeather, © 2016

Note: Actual official high and low records may vary slightly from our data, if they occured in-between our weather recording intervals... More about our weather records

Advertising

Menominee Weather History for the Previous 24 Hours

 ConditionsComfort  
Time TempWeatherWind HumidityBarometerVisibility
9:15 AM
Fri, Feb 12
14 °FSunny.12 mph52%30.05 "Hg10 mi
8:55 AM12 °FSunny.12 mph57%30.05 "Hg10 mi
8:35 AM12 °FSunny.9 mph57%30.05 "Hg10 mi
8:15 AM12 °FSunny.9 mph57%30.05 "Hg10 mi
7:55 AM10 °FSunny.9 mph61%30.05 "Hg10 mi
7:35 AM10 °FSunny.6 mph61%30.05 "Hg10 mi
6:55 AM10 °FSunny.8 mph56%30.04 "Hg10 mi
6:35 AM10 °FSunny.8 mph56%30.04 "Hg10 mi
5:55 AM10 °FClear.8 mph61%30.04 "Hg10 mi
5:35 AM12 °FClear.8 mph52%30.04 "Hg10 mi
5:15 AM12 °FClear.8 mph57%30.04 "Hg10 mi
4:55 AM12 °FPassing clouds.7 mph52%30.05 "Hg10 mi
4:35 AM12 °FPassing clouds.8 mph52%30.05 "Hg10 mi
4:15 AM12 °FPassing clouds.8 mph52%30.05 "Hg10 mi
3:55 AM14 °FOvercast.6 mph48%30.05 "Hg10 mi
3:35 AM14 °FOvercast.6 mph48%30.05 "Hg10 mi
3:15 AM14 °FOvercast.3 mph48%30.05 "Hg10 mi
2:55 AM14 °FOvercast.7 mph48%30.05 "Hg10 mi
2:35 AM14 °FOvercast.8 mph48%30.05 "Hg10 mi
2:15 AM14 °FOvercast.8 mph48%30.05 "Hg10 mi
1:55 AM16 °FOvercast.7 mph45%30.06 "Hg10 mi
1:35 AM16 °FOvercast.8 mph45%30.06 "Hg10 mi
1:15 AM16 °FOvercast.6 mph45%30.07 "Hg10 mi
12:55 AM16 °FOvercast.7 mph45%30.07 "Hg10 mi
12:35 AM16 °FOvercast.5 mph45%30.08 "Hg10 mi
12:15 AM16 °FOvercast.8 mph45%30.08 "Hg10 mi
11:35 PM
Thu, Feb 11
16 °FOvercast.7 mph45%30.10 "Hg10 mi
10:55 PM16 °FOvercast.10 mph45%30.10 "Hg10 mi
10:15 PM16 °FOvercast.7 mph41%30.11 "Hg10 mi
9:55 PM16 °FOvercast.8 mph41%30.12 "Hg10 mi
9:35 PM16 °FOvercast.8 mph41%30.12 "Hg10 mi
8:55 PM16 °FOvercast.8 mph41%30.13 "Hg10 mi
8:35 PM16 °FOvercast.7 mph45%30.13 "Hg10 mi
7:55 PM14 °FOvercast.7 mph48%30.14 "Hg10 mi
7:35 PM16 °FPassing clouds.6 mph45%30.15 "Hg10 mi
7:15 PM16 °FPassing clouds.6 mph45%30.15 "Hg10 mi
6:55 PM16 °FPassing clouds.6 mph45%30.16 "Hg10 mi
6:35 PM16 °FPassing clouds.6 mph48%30.16 "Hg10 mi
6:15 PM16 °FPassing clouds.7 mph48%30.15 "Hg10 mi
5:55 PM16 °FOvercast.7 mph48%30.16 "Hg10 mi
5:35 PM16 °FPassing clouds.5 mph48%30.16 "Hg10 mi
4:55 PM18 °FClear.8 mph49%30.16 "Hg10 mi
3:55 PM19 °FSunny.9 mph45%30.16 "Hg10 mi
3:15 PM19 °FSunny.9 mph45%30.17 "Hg10 mi
2:55 PM19 °FSunny.8 mph45%30.17 "Hg10 mi
2:35 PM18 °FSunny.10 mph49%30.18 "Hg10 mi
2:15 PM18 °FSunny.7 mph49%30.18 "Hg10 mi
1:55 PM18 °FSunny.7 mph49%30.19 "Hg10 mi
1:35 PM18 °FSunny.10 mph45%30.20 "Hg10 mi
1:15 PM16 °FSunny.5 mph53%30.21 "Hg10 mi
12:55 PM16 °FSunny.6 mph48%30.21 "Hg10 mi
12:35 PM16 °FSunny.7 mph48%30.22 "Hg10 mi
12:15 PM14 °FSunny.7 mph52%30.22 "Hg10 mi
11:55 AM14 °FSunny.6 mph52%30.23 "Hg10 mi
11:35 AM14 °FSunny.9 mph52%30.24 "Hg10 mi
11:15 AM12 °FSunny.5 mph57%30.24 "Hg10 mi
10:55 AM12 °FSunny.7 mph57%30.24 "Hg10 mi
10:35 AM12 °FSunny.6 mph57%30.24 "Hg10 mi
10:15 AM12 °FSunny.7 mph57%30.24 "Hg10 mi
Weather by CustomWeather, © 2016

See weather overviewHow to use our weather pages